sat.trackr.live / text

‹ back to catalog

STARLINK-5401

NORAD 54870 · 2022-177BC

PAYLOAD ACTIVE UNKNOWN

§ Identity

Operator
Country
US
Launch date
2022-12-28
Launch site
AFETR
Launch vehicle
Mass (kg)
RCS (m²)

Purposes: comms

External: N2YO · Heavens-Above · Gunter

§ Orbital elements

Epoch: 2026-05-25T02:52:12.823968Z

Period
94.27 min
Inclination
43.0056°
Eccentricity
0.0001335
Mean motion
15.27571138 rev/d
Perigee alt
482.2 km
Apogee alt
484.0 km
Semi-major
6,861.2 km
B*
2.5494e-5
RAAN
49.5949°
Arg perigee
285.4094°
Mean anomaly
74.6610°
Rev number
18,878

§ Raw data

STARLINK-54011 54870U 22177BC  26145.11959287  .00000439  00000+0  25494-4 0  99962 54870  43.0056  49.5949 0001335 285.4094  74.6610 15.27571138188784

JSON: /api/v1/satellites/54870 · /tle

For live sub-satellite position, see the globe view (requires WebGL).

§ Visibility from observer

Set your observer location to see the next 7 days of passes ≥ 10°. The values pass through the URL so the page stays shareable.

No JS? Fill the form by hand. The geolocation button needs JavaScript.